Location: Arrodets-la-Barthe
(43.0306°N, 0.2829°E)
Time: 06:23:44
(UTC+00:00)

CUBEBUG 2 - Pass Details

Date: 07 April 2023
Orbit: 577 x 685 km, 97.8° (Epoch: 03 June)

Event Time Altitude Azimuth Distance (km) Brightness Sun altitude
Rises 02:14:43 0° 16° (NNE) 3,046 ? -31.8°
Reaches altitude 10° 02:17:01 10° 21° (NNE) 2,116 ? -31.5°
Enters shadow 02:20:11 40° 43° (NE) 992 ? -31.1°
